sat.trackr.live / text

‹ back to catalog

KSM1-A

NORAD 46912 · 2020-081H

PAYLOAD ACTIVE UNKNOWN

§ Identity

Operator
Country
LUXE
Launch date
2020-11-07
Launch site
SRILR
Launch vehicle
Mass (kg)
RCS (m²)

External: N2YO · Heavens-Above · Gunter

§ Orbital elements

Epoch: 2026-09-09T05:02:18.816000Z

Period
94.30 min
Inclination
36.8953°
Eccentricity
0.0003605
Mean motion
15.27117085 rev/d
Perigee alt
482.0 km
Apogee alt
486.9 km
Semi-major
6,862.6 km
B*
2.9620e-4
RAAN
262.7817°
Arg perigee
276.7810°
Mean anomaly
83.2529°
Rev number
32,202

§ Raw data

KSM1-A1 46912U 20081H   26252.20994000  .00007975  00000+0  29620-3 0  99932 46912  36.8953 262.7817 0003605 276.7810  83.2529 15.27117085322021

JSON: /api/v1/satellites/46912 · /tle

For live sub-satellite position, see the globe view (requires WebGL).

§ Visibility from observer

Set your observer location to see the next 7 days of passes ≥ 10°. The values pass through the URL so the page stays shareable.

No JS? Fill the form by hand. The geolocation button needs JavaScript.

§ Radio — SatNOGS DB

ModeDescriptionDownlinkUplink
FSK AX.100 Mode 5 Mode U 401.030 MHz

1 transmitter · refreshed weekly from db.satnogs.org